This demonstration page uses our WeatherBlox Daily Observations layout. Learn more.

Hourly Observations for March 23, 2019

Temp ( °F °C ) Dew Point ( °F °C ) Humidity (%) Winds ( mph kmh ) Pressure ( in mb ) Visibility ( mi km ) Precip ( " mm )
12:15 am 00:15 Cloudy 45 7.2 40 4.6 84 84 ESE 8 13 30.07 1018 10 16.0934 0 0
12:35 am 00:35 Cloudy 45 7.2 40 4.2 81 81 SE 8 13 30.08 1019 10 16.0934 0 0
12:55 am 00:55 Cloudy 46 7.6 39 4.1 79 79 SE 9 15 30.07 1018 10 16.0934 0 0
1:15 am 01:15 Cloudy 46 8 38 3.5 74 74 ESE 15 24 30.06 1018 10 16.0934 0 0
1:35 am 01:35 Cloudy 46 7.6 38 3.5 76 76 ESE 12 19 30.04 1017 10 16.0934 0 0
1:55 am 01:55 Mostly Cloudy 44 6.9 38 3.3 78 78 E 12 19 30.03 1017 10 16.0934 0 0
2:15 am 02:15 Mostly Cloudy 44 6.8 38 3.3 79 79 E 16 26 30.03 1017 10 16.0934 0 0
2:35 am 02:35 Mostly Cloudy 44 6.9 38 3.4 79 79 E 16 26 30.02 1017 10 16.0934 0 0
2:55 am 02:55 Cloudy 45 7 38 3.3 78 78 E 14 22 30.01 1016 10 16.0934 0 0
3:15 am 03:15 Cloudy 44 6.8 38 3.5 80 80 ESE 10 17 30.02 1017 10 16.0934 0 0
3:35 am 03:35 Cloudy 44 6.7 38 3.5 80 80 ESE 12 19 30.01 1016 10 16.0934 0 0
3:55 am 03:55 Cloudy 44 6.7 38 3.5 80 80 ESE 9 15 30 1016 10 16.0934 0 0
4:15 am 04:15 Mostly Cloudy 43 6.2 38 3.5 83 83 E 9 15 30.01 1016 10 16.0934 0 0
4:35 am 04:35 Mostly Cloudy 43 5.9 38 3.6 85 85 ESE 8 13 30 1016 10 16.0934 0 0
4:55 am 04:55 Cloudy 43 6.1 39 3.7 85 85 ESE 6 9 30 1016 10 16.0934 0 0
5:15 am 05:15 Cloudy 42 5.8 39 3.9 88 88 ESE 6 9 30 1016 10 16.0934 0 0
5:35 am 05:35 Cloudy 43 5.9 39 4 88 88 ESE 8 13 30 1016 10 16.0934 0 0
5:55 am 05:55 Cloudy 42 5.8 39 3.8 87 87 ESE 8 13 30.01 1016 10 16.0934 0 0
6:15 am 06:15 Cloudy 43 6 39 3.7 85 85 ESE 9 15 30.01 1016 10 16.0934 0 0
6:35 am 06:35 Cloudy 42 5.8 39 4 88 88 E 9 15 30.01 1016 10 16.0934 0 0
6:55 am 06:55 Cloudy 42 5.6 39 4 90 90 E 8 13 30.01 1016 10 16.0934 0 0
7:15 am 07:15 Cloudy 42 5.5 39 3.9 90 90 ESE 8 13 30.01 1016 10 16.0934 0 0
7:35 am 07:35 Cloudy 42 5.5 39 3.8 89 89 ESE 10 17 30.01 1016 10 16.0934 0 0
7:55 am 07:55 Cloudy 42 5.6 39 4 90 90 ESE 10 17 30.01 1016 10 16.0934 0 0
8:15 am 08:15 Cloudy 42 5.7 39 4 89 89 ESE 12 19 30.01 1016 10 16.0934 0 0
8:35 am 08:35 Cloudy 42 5.7 39 4 89 89 ESE 10 17 30.02 1017 10 16.0934 0 0
8:55 am 08:55 Cloudy 43 6 40 4.3 89 89 ESE 10 17 30.02 1017 10 16.0934 0 0
9:15 am 09:15 Cloudy 43 6 41 5 93 93 E 10 17 30.01 1016 10 16.0934 0 0
9:35 am 09:35 Cloudy 43 6.1 41 5.2 94 94 E 10 17 30.01 1016 10 16.0934 0 0
9:55 am 09:55 Cloudy 44 6.5 42 5.4 93 93 E 12 19 30 1016 10 16.0934 0 0
10:15 am 10:15 Cloudy 45 7 42 5.8 92 92 E 10 17 30 1016 10 16.0934 0 0
10:35 am 10:35 Cloudy 45 7.1 42 5.7 91 91 E 12 19 30 1016 10 16.0934 0 0
10:55 am 10:55 Cloudy 46 7.5 43 6 90 90 E 10 17 30 1016 10 16.0934 0 0
11:15 am 11:15 Cloudy 46 7.8 43 6 89 89 E 12 19 29.98 1015 10 16.0934 0 0
11:35 am 11:35 Cloudy 46 8 43 5.9 87 87 E 13 20 29.98 1015 10 16.0934 0 0
11:55 am 11:55 Cloudy 47 8.3 43 6 86 86 E 13 20 29.98 1015 10 16.0934 0 0
12:15 pm 12:15 Cloudy 47 8.3 42 5.7 84 84 E 14 22 29.97 1015 10 16.0934 0 0
12:35 pm 12:35 Cloudy 48 8.9 42 5.6 80 80 E 17 28 29.95 1014 10 16.0934 0 0
12:55 pm 12:55 Cloudy 47 8.5 40 4.7 77 77 E 16 26 29.95 1014 10 16.0934 0 0
1:15 pm 13:15 Cloudy 49 9.2 41 4.9 75 75 E 17 28 29.94 1014 10 16.0934 0 0
1:35 pm 13:35 Cloudy 48 8.9 40 4.4 74 74 E 18 30 29.92 1013 10 16.0934 0 0
1:55 pm 13:55 Cloudy 48 9 40 4.5 74 74 E 18 30 29.91 1013 10 16.0934 0 0
2:15 pm 14:15 Cloudy 50 10.2 42 5.4 72 72 E 20 31 29.89 1012 10 16.0934 0 0
2:35 pm 14:35 Cloudy 50 10.1 42 5.3 72 72 E 17 28 29.88 1012 10 16.0934 0 0
2:55 pm 14:55 Cloudy 51 10.5 42 5.6 72 72 E 17 28 29.86 1011 10 16.0934 0 0
3:15 pm 15:15 Cloudy 51 10.5 42 5.6 72 72 E 15 24 29.86 1011 10 16.0934 0 0
3:35 pm 15:35 Cloudy 51 10.4 42 5.5 72 72 E 15 24 29.84 1010 10 16.0934 0 0
3:55 pm 15:55 Cloudy 51 10.3 42 5.5 72 72 ENE 21 33 29.83 1010 10 16.0934 0 0
4:15 pm 16:15 Cloudy with Nearby Thunderstorms 51 10.6 43 6 73 73 ENE 21 33 29.82 1010 10 16.0934 0 0
4:35 pm 16:35 Cloudy with Light Rain 49 9.3 44 6.5 83 83 ENE 20 31 29.81 1009 7 11.26538 0.02 0.508
4:55 pm 16:55 Windy with Storms Likely 48 9 44 6.8 86 86 ENE 21 33 29.8 1009 10 16.0934 0.04 1.016
5:15 pm 17:15 Cloudy with Heavy Thunderstorms 44 6.7 41 5.1 90 90 SE 3 6 29.86 1011 1.5 2.41401 0.33 8.382
5:35 pm 17:35 Cloudy with Thunderstorms 44 6.6 42 5.7 94 94 NE 8 13 29.84 1011 10 16.0934 0.4 10.16
5:55 pm 17:55 Cloudy with Nearby Thunderstorms 46 7.8 44 6.7 93 93 NE 9 15 29.83 1010 7 11.26538 0.42 10.668
6:15 pm 18:15 Cloudy with Thunderstorms 47 8.5 46 7.8 95 95 NNE 16 26 29.82 1010 10 16.0934 0.01 0.254
6:35 pm 18:35 Cloudy with Nearby Thunderstorms 46 8 46 7.5 97 97 NNE 17 28 29.82 1010 7 11.26538 0.02 0.508
6:55 pm 18:55 Cloudy with Thunderstorms 46 7.9 45 7.4 97 97 NNE 12 19 29.83 1010 10 16.0934 0.02 0.508
7:15 pm 19:15 Cloudy 45 7.2 44 6.8 97 97 NNE 10 17 29.83 1010 10 16.0934 0 0
7:35 pm 19:35 Cloudy 45 7 44 6.7 98 98 NNE 9 15 29.84 1010 10 16.0934 0 0
7:55 pm 19:55 Cloudy 44 6.5 43 6.2 98 98 NE 12 19 29.84 1011 10 16.0934 0 0
8:15 pm 20:15 Cloudy 44 6.8 44 6.5 98 98 NE 8 13 29.84 1011 10 16.0934 0 0
8:35 pm 20:35 Cloudy 44 6.5 43 6.3 99 99 NE 9 15 29.84 1011 10 16.0934 0 0
8:55 pm 20:55 Cloudy 44 6.5 43 6.3 99 99 NE 7 11 29.85 1011 10 16.0934 0 0
9:15 pm 21:15 Cloudy 43 6 43 5.9 99 99 NE 8 13 29.86 1011 10 16.0934 0 0
9:35 pm 21:35 Cloudy with Mist and Fog 44 6.6 44 6.6 100 100 NE 10 17 29.86 1011 5 8.0467 0 0
9:55 pm 21:55 Cloudy with Mist and Fog 43 6.3 43 6.3 100 100 NNE 8 13 29.87 1011 3 4.82802 0 0
10:15 pm 22:15 Cloudy with Mist and Fog 44 6.5 44 6.5 100 100 NNE 9 15 29.86 1011 2 3.21868 0 0
10:35 pm 22:35 Cloudy with Mist and Fog 43 6.3 43 6.3 100 100 N 7 11 29.88 1012 2 3.21868 0 0
10:55 pm 22:55 Cloudy with Mist and Fog 43 6.1 43 6.1 100 100 NNE 12 19 29.89 1012 1.75 2.816345 0 0
11:15 pm 23:15 Cloudy with Mist and Fog 43 6.1 43 6.1 100 100 N 7 11 29.89 1012 3 4.82802 0 0
11:35 pm 23:35 Cloudy with Mist and Fog 43 6 43 6 100 100 N 6 9 29.9 1012 3 4.82802 0 0
11:55 pm 23:55 Cloudy with Mist and Fog 43 6 43 6 100 100 NW 7 11 29.9 1012 3 4.82802 0 0

Powered by AerisWeather